Showing default

KINEIS-1B, 60079

Orbit data source: Space-Track

KINEIS-1B, 60079 is a French payload satellite in SSO that was launched on Thu, 20 Jun 2024 UTC via an ELECTRON launch vehicle from the Rocket Lab Launch Complex (RLLC). Payload-class satellites include a variety of spacecraft equipped with specific instruments for various scientific and technological missions. These include communications satellites like Starlink; space stations such as the ISS; scientific satellites like the Hubble; Earth observation satellites from companies like Planet Labs, Umbra, and HawkEye 360; GPS; miniature CubeSats for education and research; and military/defense satellites.

Loading next visibility...
Identifier
60079, 2024-114A
Orbit
SSO
Country
Flag of FRFR
Related business
Manufacturer
KINEIS
Mission
Operational Commercial Communications
Bus & Motor
CUBESAT 16U, Unknown motor
Mass
28 kg wet, 28 kg dry
Launch date (UTC)
2024-06-20 (1 year ago)
Launch vehicle
ELECTRON
Launch site
Rocket Lab Launch Complex (RLLC)
Object type
Payload
Rocket body
Debris
Shape & HBR
Box + 2 Pan + 1 Ant, 1.0 m
Radar Cross Section
0.229 m², Medium (>0.1 m² and < 1m²)

Expand to show TLE details & history
Last TLE update: 1 day ago

TLE from 1 day ago
0 KINEIS-1B
1 60079U 24114A   25312.83799521  .00002287  00000-0  30902-3 0  9997
2 60079  98.0015 332.9536 0003899  91.8095 268.3563 14.80027924 74808
Epoch: 2025-11-08T20:06Z
TLE epoch observation values (Epoch: 2025-11-08T20:06:42.786Z)
Latitude
-0.00003°
Longitude
-16.98654°
Altitude
632.334 km
Speed
7.542 km/s
True Right ascension
22h 11m 48s
True Declination
0° 00' 00"
Sunlit
Object was in daylight at epoch
Visualization orbit readout
Latitude
Unknown
Longitude
Unknown
Altitude
Unknown
Speed
Unknown
Apparent Right ascension
Unknown
Apparent Declination
Unknown
Sunlit
N/A
Visualization observer readout
Local Sidereal Time
18:29:10
Azimuth
Unknown
Elevation
Unknown
Doppler factor
Unknown
Orbital elements
Apogee altitude
629.012 km
Perigee altitude
623.55 km
Semi-major axis
7,004.418 km
Eccentricity
0.00039
Inclination
98.0015°
RAAN
332.9536°
Arg. of periapsis
91.8095°
True anomaly
268.31164°
Mean anomaly
268.3563°
Eccentric anomaly
268.33397°
Mean motion
3.70241 °/min
Orbital period
97.23 mins
BSTAR
0.00030902
Loading maneuver chart data...
Computing Atmospheric mass density...
Loading historical data...
Loading historical data...
Loading historical data...
Loading historical data...
Loading historical data...
Loading historical data...
Loading historical data...

Documentation

Showing up to 5 results
|